Time,TemperatureF,DewpointF,PressureIn,WindDirection,WindDirectionDegrees,WindSpeedMPH,WindSpeedGustMPH,Humidity,HourlyPrecipIn,Conditions,Clouds,dailyrainin,SoftwareType,DateUTC
2014-01-12 00:01:00,43.8,43.8,29.52,WNW,296,6.0,6.0,100,0.00,,,0.47,Wunderground v.1.15,2014-01-12 05:01:00,
2014-01-12 00:03:00,43.7,43.7,29.52,WNW,296,4.0,6.0,100,0.00,,,0.47,Wunderground v.1.15,2014-01-12 05:03:00,
2014-01-12 00:06:00,43.6,43.6,29.52,WNW,296,3.0,6.0,100,0.00,,,0.47,Wunderground v.1.15,2014-01-12 05:06:00,
2014-01-12 00:07:00,43.5,43.5,29.52,WNW,296,4.0,6.0,100,0.00,,,0.47,Wunderground v.1.15,2014-01-12 05:07:00,
2014-01-12 00:08:00,43.5,43.5,29.52,WNW,296,3.0,6.0,100,0.00,,,0.47,Wunderground v.1.15,2014-01-12 05:08:00,
2014-01-12 00:11:00,43.4,43.4,29.52,WNW,296,4.0,4.0,100,0.00,,,0.47,Wunderground v.1.15,2014-01-12 05:11:00,
2014-01-12 00:17:00,43.2,43.2,29.52,WNW,296,3.0,4.0,100,0.00,,,0.47,Wunderground v.1.15,2014-01-12 05:17:00,
2014-01-12 00:22:00,43.2,43.2,29.53,WNW,296,3.0,4.0,100,0.00,,,0.00,Wunderground v.1.15,2014-01-12 05:22:00,
2014-01-12 00:28:00,43.1,43.1,29.53,WNW,296,3.0,4.0,100,0.00,,,0.00,Wunderground v.1.15,2014-01-12 05:28:00,
2014-01-12 00:33:00,43.0,43.0,29.53,WNW,296,2.0,3.0,100,0.00,,,0.00,Wunderground v.1.15,2014-01-12 05:33:00,
2014-01-12 00:39:00,42.9,42.9,29.53,WNW,296,3.0,4.0,100,0.00,,,0.00,Wunderground v.1.15,2014-01-12 05:39:00,
2014-01-12 00:44:00,43.1,43.1,29.54,WNW,296,4.0,4.0,100,0.00,,,0.00,Wunderground v.1.15,2014-01-12 05:44:00,
2014-01-12 00:50:00,43.3,43.3,29.54,WNW,296,6.0,6.0,100,0.00,,,0.00,Wunderground v.1.15,2014-01-12 05:50:00,
2014-01-12 00:56:00,43.5,43.5,29.54,WNW,296,4.0,6.0,100,0.00,,,0.00,Wunderground v.1.15,2014-01-12 05:56:00,
2014-01-12 01:03:00,43.4,43.4,29.54,WNW,296,5.0,5.0,100,0.00,,,0.00,Wunderground v.1.15,2014-01-12 06:03:00,
2014-01-12 01:05:00,43.3,43.3,29.55,WNW,296,4.0,5.0,100,0.00,,,0.00,Wunderground v.1.15,2014-01-12 06:05:00,
2014-01-12 01:10:00,43.1,43.1,29.55,WNW,296,5.0,5.0,100,0.00,,,0.00,Wunderground v.1.15,2014-01-12 06:10:00,
2014-01-12 01:15:00,43.1,43.1,29.55,NW,307,9.0,9.0,100,0.00,,,0.00,Wunderground v.1.15,2014-01-12 06:15:00,
2014-01-12 01:20:00,43.5,43.5,29.56,NW,304,7.0,7.0,100,0.00,,,0.00,Wunderground v.1.15,2014-01-12 06:20:00,
2014-01-12 01:26:00,43.8,43.8,29.55,NW,304,9.0,10.0,100,0.00,,,0.00,Wunderground v.1.15,2014-01-12 06:26:00,
2014-01-12 01:31:00,43.9,43.9,29.56,NW,305,9.0,10.0,100,0.00,,,0.00,Wunderground v.1.15,2014-01-12 06:31:00,
2014-01-12 01:36:00,43.8,43.8,29.56,NW,304,10.0,10.0,100,0.00,,,0.00,Wunderground v.1.15,2014-01-12 06:36:00,
2014-01-12 01:42:00,43.7,43.7,29.57,NW,304,10.0,10.0,100,0.00,,,0.00,Wunderground v.1.15,2014-01-12 06:42:00,
2014-01-12 01:47:00,43.7,43.7,29.57,NW,309,11.0,15.0,100,0.00,,,0.00,Wunderground v.1.15,2014-01-12 06:47:00,
2014-01-12 01:52:00,43.9,43.9,29.57,NW,307,15.0,15.0,100,0.00,,,0.00,Wunderground v.1.15,2014-01-12 06:52:00,
2014-01-12 01:58:00,44.2,44.2,29.58,NW,313,15.0,15.0,100,0.00,,,0.00,Wunderground v.1.15,2014-01-12 06:58:00,
2014-01-12 02:03:00,44.2,44.2,29.58,NW,310,16.0,17.0,100,0.00,,,0.00,Wunderground v.1.15,2014-01-12 07:03:00,
2014-01-12 02:08:00,44.5,44.5,29.58,NW,314,18.0,21.0,100,0.00,,,0.00,Wunderground v.1.15,2014-01-12 07:08:00,
2014-01-12 02:13:00,44.9,44.9,29.58,NW,315,22.0,26.0,100,0.00,,,0.00,Wunderground v.1.15,2014-01-12 07:13:00,
2014-01-12 02:18:00,45.0,44.5,29.59,NW,314,19.0,26.0,98,0.00,,,0.00,Wunderground v.1.15,2014-01-12 07:18:00,
2014-01-12 02:23:00,45.0,43.9,29.60,NW,315,16.0,21.0,96,0.00,,,0.00,Wunderground v.1.15,2014-01-12 07:23:00,
2014-01-12 02:28:00,45.0,43.1,29.61,NW,317,17.0,21.0,93,0.00,,,0.00,Wunderground v.1.15,2014-01-12 07:28:00,
2014-01-12 02:33:00,44.9,42.4,29.61,NW,319,14.0,17.0,91,0.00,,,0.00,Wunderground v.1.15,2014-01-12 07:33:00,
2014-01-12 02:38:00,44.9,41.9,29.61,NW,322,15.0,19.0,89,0.00,,,0.00,Wunderground v.1.15,2014-01-12 07:38:00,
2014-01-12 02:43:00,44.9,41.6,29.62,NW,323,13.0,16.0,88,0.00,,,0.00,Wunderground v.1.15,2014-01-12 07:43:00,
2014-01-12 02:48:00,44.6,41.0,29.62,NNW,328,14.0,16.0,87,0.00,,,0.00,Wunderground v.1.15,2014-01-12 07:48:00,
2014-01-12 02:53:00,44.4,40.8,29.62,NW,323,15.0,16.0,87,0.00,,,0.00,Wunderground v.1.15,2014-01-12 07:53:00,
2014-01-12 02:58:00,44.5,40.6,29.63,NW,320,17.0,23.0,86,0.00,,,0.00,Wunderground v.1.15,2014-01-12 07:58:00,
2014-01-12 03:03:00,45.0,40.8,29.63,NW,321,21.0,23.0,85,0.00,,,0.00,Wunderground v.1.15,2014-01-12 08:03:00,
2014-01-12 03:08:00,45.0,40.5,29.63,NW,323,17.0,23.0,84,0.00,,,0.00,Wunderground v.1.15,2014-01-12 08:08:00,
2014-01-12 03:13:00,45.0,40.5,29.63,NW,319,15.0,20.0,84,0.00,,,0.00,Wunderground v.1.15,2014-01-12 08:13:00,
2014-01-12 03:18:00,44.5,40.3,29.63,NNW,329,14.0,20.0,85,0.00,,,0.00,Wunderground v.1.15,2014-01-12 08:18:00,
2014-01-12 03:23:00,44.5,40.3,29.63,NNW,330,9.0,16.0,85,0.00,,,0.00,Wunderground v.1.15,2014-01-12 08:23:00,
2014-01-12 03:28:00,44.2,40.0,29.63,NW,325,15.0,18.0,85,0.00,,,0.00,Wunderground v.1.15,2014-01-12 08:28:00,
2014-01-12 03:33:00,44.5,40.0,29.63,NW,322,16.0,17.0,84,0.00,,,0.00,Wunderground v.1.15,2014-01-12 08:33:00,
2014-01-12 03:38:00,44.3,39.8,29.64,NW,321,11.0,17.0,84,0.00,,,0.00,Wunderground v.1.15,2014-01-12 08:38:00,
2014-01-12 03:43:00,44.0,39.8,29.64,NW,322,13.0,14.0,85,0.00,,,0.00,Wunderground v.1.15,2014-01-12 08:43:00,
2014-01-12 03:48:00,43.7,39.5,29.64,NW,325,7.0,14.0,85,0.00,,,0.00,Wunderground v.1.15,2014-01-12 08:48:00,
2014-01-12 03:53:00,43.5,39.6,29.64,NW,325,4.0,10.0,86,0.00,,,0.00,Wunderground v.1.15,2014-01-12 08:53:00,
2014-01-12 03:58:00,43.1,39.2,29.64,NW,325,4.0,10.0,86,0.00,,,0.00,Wunderground v.1.15,2014-01-12 08:58:00,
2014-01-12 04:03:00,42.8,39.2,29.64,NW,325,4.0,6.0,87,0.00,,,0.00,Wunderground v.1.15,2014-01-12 09:03:00,
2014-01-12 04:08:00,42.5,39.2,29.64,NW,325,7.0,9.0,88,0.00,,,0.00,Wunderground v.1.15,2014-01-12 09:08:00,
2014-01-12 04:13:00,42.3,39.0,29.64,NW,312,9.0,13.0,88,0.00,,,0.00,Wunderground v.1.15,2014-01-12 09:13:00,
2014-01-12 04:18:00,42.3,39.0,29.64,NW,313,12.0,13.0,88,0.00,,,0.00,Wunderground v.1.15,2014-01-12 09:18:00,
2014-01-12 04:23:00,42.6,39.0,29.64,NW,313,10.0,13.0,87,0.00,,,0.00,Wunderground v.1.15,2014-01-12 09:23:00,
2014-01-12 04:28:00,42.6,39.0,29.64,NW,314,11.0,13.0,87,0.00,,,0.00,Wunderground v.1.15,2014-01-12 09:28:00,
2014-01-12 04:33:00,42.6,39.0,29.64,NW,315,13.0,14.0,87,0.00,,,0.00,Wunderground v.1.15,2014-01-12 09:33:00,
2014-01-12 04:38:00,42.8,38.9,29.65,NW,317,13.0,15.0,86,0.00,,,0.00,Wunderground v.1.15,2014-01-12 09:38:00,
2014-01-12 04:43:00,42.9,39.0,29.65,NW,317,11.0,12.0,86,0.00,,,0.00,Wunderground v.1.15,2014-01-12 09:43:00,
2014-01-12 04:48:00,42.7,38.8,29.65,NW,317,10.0,12.0,86,0.00,,,0.00,Wunderground v.1.15,2014-01-12 09:48:00,
2014-01-12 04:54:00,42.4,38.5,29.65,NW,317,10.0,11.0,86,0.00,,,0.00,Wunderground v.1.15,2014-01-12 09:54:00,
2014-01-12 04:59:00,42.2,38.6,29.66,NW,317,10.0,11.0,87,0.00,,,0.00,Wunderground v.1.15,2014-01-12 09:59:00,
2014-01-12 05:04:00,42.0,38.4,29.66,NW,317,10.0,10.0,87,0.00,,,0.00,Wunderground v.1.15,2014-01-12 10:04:00,
2014-01-12 05:09:00,41.9,38.6,29.67,NW,317,11.0,11.0,88,0.00,,,0.00,Wunderground v.1.15,2014-01-12 10:09:00,
2014-01-12 05:14:00,41.8,38.5,29.67,NW,317,9.0,11.0,88,0.00,,,0.00,Wunderground v.1.15,2014-01-12 10:14:00,
2014-01-12 05:19:00,41.7,38.4,29.67,NW,317,7.0,11.0,88,0.00,,,0.00,Wunderground v.1.15,2014-01-12 10:19:00,
2014-01-12 05:24:00,41.5,38.5,29.68,NW,317,7.0,9.0,89,0.00,,,0.00,Wunderground v.1.15,2014-01-12 10:24:00,
2014-01-12 05:29:00,41.4,38.4,29.68,NW,317,6.0,9.0,89,0.00,,,0.00,Wunderground v.1.15,2014-01-12 10:29:00,
2014-01-12 05:34:00,41.2,38.2,29.68,NW,317,6.0,7.0,89,0.00,,,0.00,Wunderground v.1.15,2014-01-12 10:34:00,
2014-01-12 05:39:00,41.1,38.1,29.69,NW,317,7.0,7.0,89,0.00,,,0.00,Wunderground v.1.15,2014-01-12 10:39:00,
2014-01-12 05:44:00,41.1,38.4,29.69,NW,317,8.0,10.0,90,0.00,,,0.00,Wunderground v.1.15,2014-01-12 10:44:00,
2014-01-12 05:49:00,41.1,38.4,29.70,NW,317,9.0,10.0,90,0.00,,,0.00,Wunderground v.1.15,2014-01-12 10:49:00,
2014-01-12 05:54:00,41.1,38.1,29.70,NW,317,10.0,10.0,89,0.00,,,0.00,Wunderground v.1.15,2014-01-12 10:54:00,
2014-01-12 05:59:00,41.2,38.2,29.70,NW,316,11.0,11.0,89,0.00,,,0.00,Wunderground v.1.15,2014-01-12 10:59:00,
2014-01-12 06:04:00,41.3,38.3,29.71,NW,315,9.0,11.0,89,0.00,,,0.00,Wunderground v.1.15,2014-01-12 11:04:00,
2014-01-12 06:09:00,41.3,38.3,29.72,NW,315,7.0,11.0,89,0.00,,,0.00,Wunderground v.1.15,2014-01-12 11:09:00,
2014-01-12 06:14:00,41.2,38.2,29.72,NW,315,9.0,10.0,89,0.00,,,0.00,Wunderground v.1.15,2014-01-12 11:14:00,
2014-01-12 06:19:00,41.1,38.1,29.72,NW,315,9.0,10.0,89,0.00,,,0.00,Wunderground v.1.15,2014-01-12 11:19:00,
2014-01-12 06:24:00,41.1,38.1,29.73,NW,315,10.0,10.0,89,0.00,,,0.00,Wunderground v.1.15,2014-01-12 11:24:00,
2014-01-12 06:29:00,41.1,38.4,29.73,NW,315,10.0,11.0,90,0.00,,,0.00,Wunderground v.1.15,2014-01-12 11:29:00,
2014-01-12 06:34:00,41.1,38.1,29.74,NW,315,10.0,12.0,89,0.00,,,0.00,Wunderground v.1.15,2014-01-12 11:34:00,
2014-01-12 06:39:00,41.2,38.2,29.75,NW,315,9.0,12.0,89,0.00,,,0.00,Wunderground v.1.15,2014-01-12 11:39:00,
2014-01-12 06:44:00,41.3,38.3,29.75,NW,315,6.0,10.0,89,0.00,,,0.00,Wunderground v.1.15,2014-01-12 11:44:00,
2014-01-12 06:49:00,41.3,38.3,29.76,NW,315,5.0,10.0,89,0.00,,,0.00,Wunderground v.1.15,2014-01-12 11:49:00,
2014-01-12 06:54:00,41.1,38.1,29.76,NW,315,4.0,7.0,89,0.00,,,0.00,Wunderground v.1.15,2014-01-12 11:54:00,
2014-01-12 06:59:00,41.1,38.1,29.77,NW,316,9.0,13.0,89,0.00,,,0.00,Wunderground v.1.15,2014-01-12 11:59:00,
2014-01-12 07:04:00,41.6,38.0,29.77,NW,315,9.0,13.0,87,0.00,,,0.00,Wunderground v.1.15,2014-01-12 12:04:00,
2014-01-12 07:09:00,41.9,38.3,29.78,NW,315,11.0,13.0,87,0.00,,,0.00,Wunderground v.1.15,2014-01-12 12:09:00,
2014-01-12 07:14:00,41.9,38.3,29.78,NW,315,9.0,11.0,87,0.00,,,0.00,Wunderground v.1.15,2014-01-12 12:14:00,
2014-01-12 07:19:00,41.8,38.2,29.78,NW,315,6.0,11.0,87,0.00,,,0.00,Wunderground v.1.15,2014-01-12 12:19:00,
2014-01-12 07:24:00,41.6,38.0,29.79,NW,315,5.0,9.0,87,0.00,,,0.00,Wunderground v.1.15,2014-01-12 12:24:00,
2014-01-12 07:29:00,41.4,37.8,29.79,NW,315,7.0,9.0,87,0.00,,,0.00,Wunderground v.1.15,2014-01-12 12:29:00,
2014-01-12 07:34:00,41.3,37.7,29.80,NW,315,9.0,12.0,87,0.00,,,0.00,Wunderground v.1.15,2014-01-12 12:34:00,
2014-01-12 07:39:00,41.6,37.4,29.80,WNW,302,14.0,14.0,85,0.00,,,0.00,Wunderground v.1.15,2014-01-12 12:39:00,
2014-01-12 07:45:00,42.2,37.4,29.81,NW,309,14.0,15.0,83,0.00,,,0.00,Wunderground v.1.15,2014-01-12 12:45:00,
2014-01-12 07:50:00,42.5,37.4,29.81,NW,315,18.0,20.0,82,0.00,,,0.00,Wunderground v.1.15,2014-01-12 12:50:00,
2014-01-12 07:55:00,42.8,37.4,29.81,NW,310,19.0,22.0,81,0.00,,,0.00,Wunderground v.1.15,2014-01-12 12:55:00,
2014-01-12 08:00:00,43.1,37.0,29.82,NW,310,17.0,18.0,79,0.00,,,0.00,Wunderground v.1.15,2014-01-12 13:00:00,
2014-01-12 08:05:00,43.0,36.9,29.83,NW,318,19.0,24.0,79,0.00,,,0.00,Wunderground v.1.15,2014-01-12 13:05:00,
2014-01-12 08:10:00,43.0,36.6,29.83,NW,306,20.0,22.0,78,0.00,,,0.00,Wunderground v.1.15,2014-01-12 13:10:00,
2014-01-12 08:15:00,42.9,36.2,29.83,NW,311,18.0,26.0,77,0.00,,,0.00,Wunderground v.1.15,2014-01-12 13:15:00,
2014-01-12 08:20:00,42.9,36.5,29.83,NW,316,18.0,21.0,78,0.00,,,0.00,Wunderground v.1.15,2014-01-12 13:20:00,
2014-01-12 08:25:00,42.9,36.2,29.84,NW,320,22.0,22.0,77,0.00,,,0.00,Wunderground v.1.15,2014-01-12 13:25:00,
2014-01-12 08:30:00,43.0,36.0,29.84,NW,313,23.0,23.0,76,0.00,,,0.00,Wunderground v.1.15,2014-01-12 13:30:00,
2014-01-12 08:35:00,43.1,36.0,29.85,NW,319,18.0,25.0,76,0.00,,,0.00,Wunderground v.1.15,2014-01-12 13:35:00,
2014-01-12 08:40:00,42.9,36.2,29.86,NW,317,18.0,20.0,77,0.00,,,0.00,Wunderground v.1.15,2014-01-12 13:40:00,
2014-01-12 08:45:00,42.8,36.1,29.86,NW,319,18.0,22.0,77,0.00,,,0.00,Wunderground v.1.15,2014-01-12 13:45:00,
2014-01-12 08:50:00,42.9,36.2,29.87,NW,322,16.0,20.0,77,0.00,,,0.00,Wunderground v.1.15,2014-01-12 13:50:00,
2014-01-12 08:55:00,42.8,36.1,29.87,NW,322,16.0,20.0,77,0.00,,,0.00,Wunderground v.1.15,2014-01-12 13:55:00,
2014-01-12 09:00:00,42.9,35.9,29.87,NW,323,19.0,23.0,76,0.00,,,0.00,Wunderground v.1.15,2014-01-12 14:00:00,
2014-01-12 09:05:00,43.2,36.1,29.87,NNW,329,18.0,23.0,76,0.00,,,0.00,Wunderground v.1.15,2014-01-12 14:05:00,
2014-01-12 09:10:00,43.2,36.1,29.88,NW,321,21.0,21.0,76,0.00,,,0.00,Wunderground v.1.15,2014-01-12 14:10:00,
2014-01-12 09:15:00,43.2,35.8,29.87,NNW,339,17.0,24.0,75,0.00,,,0.00,Wunderground v.1.15,2014-01-12 14:15:00,
2014-01-12 09:20:00,43.3,35.9,29.87,NNW,340,18.0,20.0,75,0.00,,,0.00,Wunderground v.1.15,2014-01-12 14:20:00,
2014-01-12 09:25:00,43.5,35.8,29.88,NW,324,18.0,26.0,74,0.00,,,0.00,Wunderground v.1.15,2014-01-12 14:25:00,
2014-01-12 09:30:00,43.3,36.2,29.89,NW,326,16.0,20.0,76,0.00,,,0.00,Wunderground v.1.15,2014-01-12 14:30:00,
2014-01-12 09:35:00,43.1,36.4,29.90,NW,322,17.0,21.0,77,0.00,,,0.00,Wunderground v.1.15,2014-01-12 14:35:00,
2014-01-12 09:40:00,42.9,36.2,29.90,NNW,329,19.0,20.0,77,0.00,,,0.00,Wunderground v.1.15,2014-01-12 14:40:00,
2014-01-12 09:45:00,43.0,36.0,29.91,NW,323,18.0,21.0,76,0.00,,,0.00,Wunderground v.1.15,2014-01-12 14:45:00,
2014-01-12 09:50:00,43.0,36.3,29.91,NNW,327,18.0,19.0,77,0.00,,,0.00,Wunderground v.1.15,2014-01-12 14:50:00,
2014-01-12 09:55:00,42.9,36.5,29.91,NW,325,17.0,22.0,78,0.00,,,0.00,Wunderground v.1.15,2014-01-12 14:55:00,
2014-01-12 10:00:00,42.9,36.5,29.91,NNW,331,19.0,21.0,78,0.00,,,0.00,Wunderground v.1.15,2014-01-12 15:00:00,
2014-01-12 10:05:00,43.1,36.4,29.91,NW,321,19.0,25.0,77,0.00,,,0.00,Wunderground v.1.15,2014-01-12 15:05:00,
2014-01-12 10:10:00,43.1,36.0,29.92,NW,326,17.0,22.0,76,0.00,,,0.00,Wunderground v.1.15,2014-01-12 15:10:00,
2014-01-12 10:15:00,43.3,36.2,29.92,NW,325,18.0,24.0,76,0.00,,,0.00,Wunderground v.1.15,2014-01-12 15:15:00,
2014-01-12 10:20:00,43.2,36.5,29.92,NW,318,17.0,19.0,77,0.00,,,0.00,Wunderground v.1.15,2014-01-12 15:20:00,
2014-01-12 10:25:00,43.0,36.3,29.92,NW,319,18.0,22.0,77,0.00,,,0.00,Wunderground v.1.15,2014-01-12 15:25:00,
2014-01-12 10:30:00,43.1,36.7,29.92,NW,320,16.0,17.0,78,0.00,,,0.00,Wunderground v.1.15,2014-01-12 15:30:00,
2014-01-12 10:35:00,42.9,36.5,29.92,NNW,329,16.0,22.0,78,0.00,,,0.00,Wunderground v.1.15,2014-01-12 15:35:00,
2014-01-12 10:40:00,42.9,36.8,29.92,NW,325,15.0,17.0,79,0.00,,,0.00,Wunderground v.1.15,2014-01-12 15:40:00,
2014-01-12 10:45:00,42.7,37.0,29.92,NW,326,15.0,18.0,80,0.00,,,0.00,Wunderground v.1.15,2014-01-12 15:45:00,
2014-01-12 10:50:00,42.6,36.5,29.92,NNW,329,16.0,18.0,79,0.00,,,0.00,Wunderground v.1.15,2014-01-12 15:50:00,
2014-01-12 10:55:00,42.7,36.6,29.92,NNW,329,15.0,18.0,79,0.00,,,0.00,Wunderground v.1.15,2014-01-12 15:55:00,
2014-01-12 11:00:00,42.7,37.0,29.92,NW,323,15.0,16.0,80,0.00,,,0.00,Wunderground v.1.15,2014-01-12 16:00:00,
2014-01-12 11:05:00,42.6,36.9,29.92,NW,323,17.0,17.0,80,0.00,,,0.00,Wunderground v.1.15,2014-01-12 16:05:00,
2014-01-12 11:10:00,42.7,36.6,29.92,NW,322,18.0,19.0,79,0.00,,,0.00,Wunderground v.1.15,2014-01-12 16:10:00,
2014-01-12 11:15:00,42.8,36.7,29.92,NW,315,20.0,20.0,79,0.00,,,0.00,Wunderground v.1.15,2014-01-12 16:15:00,
2014-01-12 11:20:00,42.8,36.7,29.92,NW,314,16.0,17.0,79,0.00,,,0.00,Wunderground v.1.15,2014-01-12 16:20:00,
2014-01-12 11:25:00,42.9,36.8,29.92,NW,318,16.0,22.0,79,0.00,,,0.00,Wunderground v.1.15,2014-01-12 16:25:00,
2014-01-12 11:30:00,42.9,36.8,29.92,NW,319,16.0,17.0,79,0.00,,,0.00,Wunderground v.1.15,2014-01-12 16:30:00,
2014-01-12 11:36:00,43.0,37.3,29.92,NW,311,11.0,18.0,80,0.00,,,0.00,Wunderground v.1.15,2014-01-12 16:36:00,
2014-01-12 11:41:00,42.9,37.2,29.92,NW,321,12.0,16.0,80,0.00,,,0.00,Wunderground v.1.15,2014-01-12 16:41:00,
2014-01-12 11:46:00,42.9,37.2,29.92,NW,318,13.0,16.0,80,0.00,,,0.00,Wunderground v.1.15,2014-01-12 16:46:00,
2014-01-12 11:51:00,43.0,37.3,29.93,NW,311,13.0,15.0,80,0.00,,,0.00,Wunderground v.1.15,2014-01-12 16:51:00,
2014-01-12 11:56:00,43.1,37.0,29.92,NW,315,13.0,16.0,79,0.00,,,0.00,Wunderground v.1.15,2014-01-12 16:56:00,
2014-01-12 12:01:00,43.3,37.2,29.92,NW,323,12.0,13.0,79,0.00,,,0.00,Wunderground v.1.15,2014-01-12 17:01:00,
2014-01-12 12:06:00,43.1,37.3,29.92,NW,323,13.0,14.0,80,0.00,,,0.00,Wunderground v.1.15,2014-01-12 17:06:00,
2014-01-12 12:11:00,43.1,37.3,29.92,NW,325,10.0,12.0,80,0.00,,,0.00,Wunderground v.1.15,2014-01-12 17:11:00,
2014-01-12 12:16:00,43.0,37.3,29.91,NW,321,11.0,14.0,80,0.00,,,0.00,Wunderground v.1.15,2014-01-12 17:16:00,
2014-01-12 12:21:00,43.1,37.0,29.91,NW,309,17.0,17.0,79,0.00,,,0.00,Wunderground v.1.15,2014-01-12 17:21:00,
2014-01-12 12:26:00,43.4,37.3,29.92,NW,316,15.0,18.0,79,0.00,,,0.00,Wunderground v.1.15,2014-01-12 17:26:00,
2014-01-12 12:31:00,43.4,37.3,29.92,NW,323,15.0,16.0,79,0.00,,,0.00,Wunderground v.1.15,2014-01-12 17:31:00,
2014-01-12 12:36:00,43.3,37.2,29.91,NW,317,17.0,19.0,79,0.00,,,0.00,Wunderground v.1.15,2014-01-12 17:36:00,
2014-01-12 12:41:00,43.5,37.4,29.92,NW,325,13.0,17.0,79,0.00,,,0.00,Wunderground v.1.15,2014-01-12 17:41:00,
2014-01-12 12:46:00,43.6,37.5,29.92,NNW,327,9.0,17.0,79,0.00,,,0.00,Wunderground v.1.15,2014-01-12 17:46:00,
2014-01-12 12:51:00,43.7,37.3,29.92,NW,315,14.0,16.0,78,0.00,,,0.00,Wunderground v.1.15,2014-01-12 17:51:00,
2014-01-12 12:56:00,43.8,37.7,29.92,NW,321,10.0,16.0,79,0.00,,,0.00,Wunderground v.1.15,2014-01-12 17:56:00,
2014-01-12 13:01:00,43.5,37.7,29.92,NW,318,12.0,13.0,80,0.00,,,0.00,Wunderground v.1.15,2014-01-12 18:01:00,
2014-01-12 13:06:00,43.4,38.0,29.93,NW,310,12.0,13.0,81,0.00,,,0.00,Wunderground v.1.15,2014-01-12 18:06:00,
2014-01-12 13:11:00,43.3,37.9,29.93,NW,311,11.0,12.0,81,0.00,,,0.00,Wunderground v.1.15,2014-01-12 18:11:00,
2014-01-12 13:16:00,43.4,38.0,29.93,NW,319,15.0,16.0,81,0.00,,,0.00,Wunderground v.1.15,2014-01-12 18:16:00,
2014-01-12 13:21:00,43.4,38.0,29.93,NW,313,14.0,15.0,81,0.00,,,0.00,Wunderground v.1.15,2014-01-12 18:21:00,
2014-01-12 13:26:00,43.5,38.1,29.94,NW,313,11.0,15.0,81,0.00,,,0.00,Wunderground v.1.15,2014-01-12 18:26:00,
2014-01-12 13:31:00,43.5,38.4,29.94,NW,315,7.0,11.0,82,0.00,,,0.00,Wunderground v.1.15,2014-01-12 18:31:00,
2014-01-12 13:36:00,43.5,38.4,29.94,NW,321,10.0,11.0,82,0.00,,,0.00,Wunderground v.1.15,2014-01-12 18:36:00,
2014-01-12 13:41:00,43.4,38.3,29.93,NNW,327,10.0,10.0,82,0.00,,,0.00,Wunderground v.1.15,2014-01-12 18:41:00,
2014-01-12 13:46:00,43.7,38.3,29.93,NNW,336,8.0,13.0,81,0.00,,,0.00,Wunderground v.1.15,2014-01-12 18:46:00,
2014-01-12 13:51:00,43.8,38.3,29.94,NNW,336,6.0,8.0,81,0.00,,,0.00,Wunderground v.1.15,2014-01-12 18:51:00,
2014-01-12 13:56:00,43.8,38.3,29.94,NNW,336,6.0,8.0,81,0.00,,,0.00,Wunderground v.1.15,2014-01-12 18:56:00,
2014-01-12 14:01:00,44.0,38.5,29.95,NNW,336,4.0,5.0,81,0.00,,,0.00,Wunderground v.1.15,2014-01-12 19:01:00,
2014-01-12 14:06:00,44.1,38.3,29.95,NNW,336,5.0,6.0,80,0.00,,,0.00,Wunderground v.1.15,2014-01-12 19:06:00,
2014-01-12 14:11:00,44.3,38.5,29.94,NNW,336,10.0,10.0,80,0.00,,,0.00,Wunderground v.1.15,2014-01-12 19:11:00,
2014-01-12 14:16:00,44.3,38.5,29.94,NNW,335,10.0,11.0,80,0.00,,,0.00,Wunderground v.1.15,2014-01-12 19:16:00,
2014-01-12 14:21:00,44.2,38.7,29.95,NNW,330,9.0,10.0,81,0.00,,,0.00,Wunderground v.1.15,2014-01-12 19:21:00,
2014-01-12 14:26:00,44.0,38.9,29.95,NNW,329,9.0,10.0,82,0.00,,,0.00,Wunderground v.1.15,2014-01-12 19:26:00,
2014-01-12 14:31:00,44.0,38.9,29.95,NW,326,5.0,8.0,82,0.00,,,0.00,Wunderground v.1.15,2014-01-12 19:31:00,
2014-01-12 14:36:00,44.0,38.9,29.95,NW,326,6.0,8.0,82,0.00,,,0.00,Wunderground v.1.15,2014-01-12 19:36:00,
2014-01-12 14:41:00,44.0,38.5,29.95,NW,326,6.0,6.0,81,0.00,,,0.00,Wunderground v.1.15,2014-01-12 19:41:00,
2014-01-12 14:46:00,44.0,38.9,29.95,NW,323,8.0,9.0,82,0.00,,,0.00,Wunderground v.1.15,2014-01-12 19:46:00,
2014-01-12 14:51:00,43.9,38.8,29.95,NW,321,9.0,10.0,82,0.00,,,0.00,Wunderground v.1.15,2014-01-12 19:51:00,
2014-01-12 14:56:00,43.8,39.0,29.95,NW,317,8.0,10.0,83,0.00,,,0.00,Wunderground v.1.15,2014-01-12 19:56:00,
2014-01-12 15:01:00,43.7,38.6,29.96,NW,314,6.0,9.0,82,0.00,,,0.00,Wunderground v.1.15,2014-01-12 20:01:00,
2014-01-12 15:06:00,43.8,38.7,29.97,NW,314,4.0,9.0,82,0.00,,,0.00,Wunderground v.1.15,2014-01-12 20:06:00,
2014-01-12 15:11:00,44.1,38.6,29.97,NW,314,4.0,7.0,81,0.00,,,0.00,Wunderground v.1.15,2014-01-12 20:11:00,
2014-01-12 15:16:00,44.4,38.6,29.98,NW,314,3.0,7.0,80,0.00,,,0.00,Wunderground v.1.15,2014-01-12 20:16:00,
2014-01-12 15:21:00,44.6,38.8,29.98,NW,314,2.0,4.0,80,0.00,,,0.00,Wunderground v.1.15,2014-01-12 20:21:00,
2014-01-12 15:26:00,44.8,39.3,29.98,NW,314,2.0,4.0,81,0.00,,,0.00,Wunderground v.1.15,2014-01-12 20:26:00,
2014-01-12 15:31:00,44.8,38.7,29.98,NW,314,3.0,5.0,79,0.00,,,0.00,Wunderground v.1.15,2014-01-12 20:31:00,
2014-01-12 15:36:00,45.0,38.2,29.98,NW,314,2.0,5.0,77,0.00,,,0.00,Wunderground v.1.15,2014-01-12 20:36:00,
2014-01-12 15:41:00,45.4,38.6,29.98,NW,314,0.0,3.0,77,0.00,,,0.00,Wunderground v.1.15,2014-01-12 20:41:00,
2014-01-12 15:46:00,45.8,39.3,29.99,NW,314,0.0,3.0,78,0.00,,,0.00,Wunderground v.1.15,2014-01-12 20:46:00,
2014-01-12 15:51:00,46.2,39.1,29.99,NW,314,0.0,0.0,76,0.00,,,0.00,Wunderground v.1.15,2014-01-12 20:51:00,
2014-01-12 15:56:00,46.5,38.7,29.99,NW,314,2.0,3.0,74,0.00,,,0.00,Wunderground v.1.15,2014-01-12 20:56:00,
2014-01-12 16:01:00,46.8,38.2,29.98,NW,314,3.0,6.0,72,0.00,,,0.00,Wunderground v.1.15,2014-01-12 21:01:00,
2014-01-12 16:06:00,47.0,38.4,29.98,NW,314,4.0,6.0,72,0.00,,,0.00,Wunderground v.1.15,2014-01-12 21:06:00,
2014-01-12 16:11:00,47.2,38.6,29.98,NW,314,3.0,4.0,72,0.00,,,0.00,Wunderground v.1.15,2014-01-12 21:11:00,
2014-01-12 16:16:00,47.3,38.7,29.99,NW,314,0.0,4.0,72,0.00,,,0.00,Wunderground v.1.15,2014-01-12 21:16:00,
2014-01-12 16:21:00,47.4,38.8,29.99,NW,314,1.0,1.0,72,0.00,,,0.00,Wunderground v.1.15,2014-01-12 21:21:00,
2014-01-12 16:26:00,47.6,39.0,29.99,NW,314,0.0,1.0,72,0.00,,,0.00,Wunderground v.1.15,2014-01-12 21:26:00,
2014-01-12 16:32:00,47.8,38.8,29.99,NW,314,3.0,3.0,71,0.00,,,0.00,Wunderground v.1.15,2014-01-12 21:32:00,
2014-01-12 16:37:00,47.7,38.4,29.99,NW,314,3.0,4.0,70,0.00,,,0.00,Wunderground v.1.15,2014-01-12 21:37:00,
2014-01-12 16:42:00,47.6,38.7,29.99,NW,314,3.0,3.0,71,0.00,,,0.00,Wunderground v.1.15,2014-01-12 21:42:00,
2014-01-12 16:47:00,47.5,38.9,29.99,NW,314,1.0,3.0,72,0.00,,,0.00,Wunderground v.1.15,2014-01-12 21:47:00,
2014-01-12 16:52:00,47.3,40.1,30.00,NW,314,0.0,2.0,76,0.00,,,0.00,Wunderground v.1.15,2014-01-12 21:52:00,
2014-01-12 16:57:00,47.2,39.0,30.00,NW,314,0.0,2.0,73,0.00,,,0.00,Wunderground v.1.15,2014-01-12 21:57:00,
2014-01-12 17:02:00,47.0,38.8,30.00,NW,314,0.0,0.0,73,0.00,,,0.00,Wunderground v.1.15,2014-01-12 22:02:00,
2014-01-12 17:07:00,46.8,38.6,30.00,NW,314,0.0,0.0,73,0.00,,,0.00,Wunderground v.1.15,2014-01-12 22:07:00,
2014-01-12 17:12:00,46.5,38.3,30.00,NW,314,0.0,0.0,73,0.00,,,0.00,Wunderground v.1.15,2014-01-12 22:12:00,
2014-01-12 17:17:00,46.2,37.7,30.01,NW,314,0.0,0.0,72,0.00,,,0.00,Wunderground v.1.15,2014-01-12 22:17:00,
2014-01-12 17:22:00,46.0,37.5,30.01,NW,314,0.0,0.0,72,0.00,,,0.00,Wunderground v.1.15,2014-01-12 22:22:00,
2014-01-12 17:27:00,45.8,37.3,30.01,NW,314,0.0,0.0,72,0.00,,,0.00,Wunderground v.1.15,2014-01-12 22:27:00,
2014-01-12 17:32:00,45.5,37.3,30.02,NW,314,0.0,0.0,73,0.00,,,0.00,Wunderground v.1.15,2014-01-12 22:32:00,
2014-01-12 17:37:00,45.0,37.2,30.02,NW,314,0.0,1.0,74,0.00,,,0.00,Wunderground v.1.15,2014-01-12 22:37:00,
2014-01-12 17:42:00,44.1,37.7,30.02,NW,314,0.0,1.0,78,0.00,,,0.00,Wunderground v.1.15,2014-01-12 22:42:00,
2014-01-12 17:47:00,43.2,37.4,30.03,NW,314,2.0,2.0,80,0.00,,,0.00,Wunderground v.1.15,2014-01-12 22:47:00,
2014-01-12 17:53:00,42.6,37.2,30.03,NW,314,2.0,2.0,81,0.00,,,0.00,Wunderground v.1.15,2014-01-12 22:53:00,
2014-01-12 17:58:00,42.4,37.0,30.03,NW,314,1.0,2.0,81,0.00,,,0.00,Wunderground v.1.15,2014-01-12 22:58:00,
2014-01-12 18:03:00,42.2,36.8,30.04,NW,314,0.0,1.0,81,0.00,,,0.00,Wunderground v.1.15,2014-01-12 23:03:00,
2014-01-12 18:08:00,42.3,36.9,30.04,NW,314,0.0,1.0,81,0.00,,,0.00,Wunderground v.1.15,2014-01-12 23:08:00,
2014-01-12 18:13:00,42.5,36.8,30.04,NW,314,0.0,0.0,80,0.00,,,0.00,Wunderground v.1.15,2014-01-12 23:13:00,
2014-01-12 18:18:00,42.5,36.8,30.04,NW,314,0.0,1.0,80,0.00,,,0.00,Wunderground v.1.15,2014-01-12 23:18:00,
2014-01-12 18:23:00,42.4,36.7,30.04,NW,314,0.0,0.0,80,0.00,,,0.00,Wunderground v.1.15,2014-01-12 23:23:00,
2014-01-12 18:28:00,42.1,36.7,30.04,NW,314,0.0,0.0,81,0.00,,,0.00,Wunderground v.1.15,2014-01-12 23:28:00,
2014-01-12 18:33:00,41.6,36.2,30.05,NW,314,0.0,0.0,81,0.00,,,0.00,Wunderground v.1.15,2014-01-12 23:33:00,
2014-01-12 18:38:00,41.3,36.2,30.05,NW,314,0.0,0.0,82,0.00,,,0.00,Wunderground v.1.15,2014-01-12 23:38:00,
2014-01-12 18:43:00,41.4,36.0,30.05,NW,314,0.0,0.0,81,0.00,,,0.00,Wunderground v.1.15,2014-01-12 23:43:00,
2014-01-12 18:48:00,41.8,36.1,30.05,NW,314,0.0,0.0,80,0.00,,,0.00,Wunderground v.1.15,2014-01-12 23:48:00,
2014-01-12 18:53:00,42.1,36.4,30.05,NW,314,0.0,0.0,80,0.00,,,0.00,Wunderground v.1.15,2014-01-12 23:53:00,
2014-01-12 18:58:00,42.1,36.4,30.06,NW,314,0.0,0.0,80,0.00,,,0.00,Wunderground v.1.15,2014-01-12 23:58:00,
2014-01-12 19:03:00,41.9,36.2,30.06,NW,314,1.0,2.0,80,0.00,,,0.00,Wunderground v.1.15,2014-01-13 00:03:00,
2014-01-12 19:08:00,42.0,36.3,30.06,NW,314,2.0,2.0,80,0.00,,,0.00,Wunderground v.1.15,2014-01-13 00:08:00,
2014-01-12 19:13:00,42.2,36.2,30.06,NW,314,1.0,2.0,79,0.00,,,0.00,Wunderground v.1.15,2014-01-13 00:13:00,
2014-01-12 19:18:00,42.1,36.1,30.06,NW,314,1.0,2.0,79,0.00,,,0.00,Wunderground v.1.15,2014-01-13 00:18:00,
2014-01-12 19:23:00,42.0,36.0,30.07,NW,314,0.0,2.0,79,0.00,,,0.00,Wunderground v.1.15,2014-01-13 00:23:00,
2014-01-12 19:28:00,42.0,36.0,30.07,NW,314,0.0,2.0,79,0.00,,,0.00,Wunderground v.1.15,2014-01-13 00:28:00,
2014-01-12 19:33:00,42.2,35.8,30.08,NW,314,0.0,0.0,78,0.00,,,0.00,Wunderground v.1.15,2014-01-13 00:33:00,
2014-01-12 19:38:00,42.6,35.9,30.08,NW,314,0.0,0.0,77,0.00,,,0.00,Wunderground v.1.15,2014-01-13 00:38:00,
2014-01-12 19:43:00,42.7,36.0,30.08,NW,314,0.0,0.0,77,0.00,,,0.00,Wunderground v.1.15,2014-01-13 00:43:00,
2014-01-12 19:48:00,42.7,36.0,30.08,NW,314,0.0,0.0,77,0.00,,,0.00,Wunderground v.1.15,2014-01-13 00:48:00,
2014-01-12 19:53:00,42.9,35.9,30.09,NW,314,0.0,0.0,76,0.00,,,0.00,Wunderground v.1.15,2014-01-13 00:53:00,
2014-01-12 19:58:00,42.7,36.0,30.08,NW,314,0.0,1.0,77,0.00,,,0.00,Wunderground v.1.15,2014-01-13 00:58:00,
2014-01-12 20:03:00,42.1,35.7,30.08,NW,314,2.0,2.0,78,0.00,,,0.00,Wunderground v.1.15,2014-01-13 01:03:00,
2014-01-12 20:08:00,41.2,35.5,30.09,NW,314,3.0,4.0,80,0.00,,,0.00,Wunderground v.1.15,2014-01-13 01:08:00,
2014-01-12 20:13:00,40.5,35.4,30.09,NW,314,2.0,3.0,82,0.00,,,0.00,Wunderground v.1.15,2014-01-13 01:13:00,
2014-01-12 20:18:00,40.1,35.4,30.09,NW,314,2.0,3.0,83,0.00,,,0.00,Wunderground v.1.15,2014-01-13 01:18:00,
2014-01-12 20:23:00,39.8,35.4,30.09,NW,314,1.0,2.0,84,0.00,,,0.00,Wunderground v.1.15,2014-01-13 01:23:00,
2014-01-12 20:28:00,39.5,35.7,30.09,NW,314,0.0,4.0,86,0.00,,,0.00,Wunderground v.1.15,2014-01-13 01:28:00,
2014-01-12 20:33:00,39.2,35.7,30.09,NW,314,2.0,2.0,87,0.00,,,0.00,Wunderground v.1.15,2014-01-13 01:33:00,
2014-01-12 20:38:00,38.9,35.4,30.09,NW,314,1.0,2.0,87,0.00,,,0.00,Wunderground v.1.15,2014-01-13 01:38:00,
2014-01-12 20:43:00,38.9,35.6,30.09,NW,314,2.0,2.0,88,0.00,,,0.00,Wunderground v.1.15,2014-01-13 01:43:00,
2014-01-12 20:48:00,39.1,35.8,30.09,NW,314,2.0,2.0,88,0.00,,,0.00,Wunderground v.1.15,2014-01-13 01:48:00,
2014-01-12 20:53:00,39.1,35.8,30.10,NW,314,1.0,2.0,88,0.00,,,0.00,Wunderground v.1.15,2014-01-13 01:53:00,
2014-01-12 20:58:00,39.3,36.0,30.10,NW,314,1.0,2.0,88,0.00,,,0.00,Wunderground v.1.15,2014-01-13 01:58:00,
2014-01-12 21:03:00,39.6,36.0,30.10,NW,314,1.0,2.0,87,0.00,,,0.00,Wunderground v.1.15,2014-01-13 02:03:00,
2014-01-12 21:08:00,39.8,36.2,30.10,NW,314,1.0,2.0,87,0.00,,,0.00,Wunderground v.1.15,2014-01-13 02:08:00,
2014-01-12 21:13:00,39.9,36.3,30.10,NW,314,2.0,2.0,87,0.00,,,0.00,Wunderground v.1.15,2014-01-13 02:13:00,
2014-01-12 21:18:00,39.8,36.0,30.10,NW,314,1.0,2.0,86,0.00,,,0.00,Wunderground v.1.15,2014-01-13 02:18:00,
2014-01-12 21:23:00,39.8,36.0,30.10,NW,314,2.0,2.0,86,0.00,,,0.00,Wunderground v.1.15,2014-01-13 02:23:00,
2014-01-12 21:28:00,39.7,35.6,30.10,NW,314,2.0,3.0,85,0.00,,,0.00,Wunderground v.1.15,2014-01-13 02:28:00,
2014-01-12 21:33:00,39.3,35.5,30.10,NW,314,2.0,2.0,86,0.00,,,0.00,Wunderground v.1.15,2014-01-13 02:33:00,
2014-01-12 21:38:00,38.9,35.1,30.10,NW,314,3.0,3.0,86,0.00,,,0.00,Wunderground v.1.15,2014-01-13 02:38:00,
2014-01-12 21:44:00,38.4,34.9,30.09,NW,314,2.0,3.0,87,0.00,,,0.00,Wunderground v.1.15,2014-01-13 02:44:00,
2014-01-12 21:49:00,37.9,34.7,30.09,NW,314,2.0,3.0,88,0.00,,,0.00,Wunderground v.1.15,2014-01-13 02:49:00,
2014-01-12 21:54:00,37.4,34.5,30.09,NW,314,0.0,3.0,89,0.00,,,0.00,Wunderground v.1.15,2014-01-13 02:54:00,
2014-01-12 21:59:00,37.1,34.4,30.09,NW,314,1.0,3.0,90,0.00,,,0.00,Wunderground v.1.15,2014-01-13 02:59:00,
2014-01-12 22:04:00,36.8,34.4,30.09,NW,314,1.0,2.0,91,0.00,,,0.00,Wunderground v.1.15,2014-01-13 03:04:00,
2014-01-12 22:09:00,36.7,34.3,30.09,NW,314,1.0,2.0,91,0.00,,,0.00,Wunderground v.1.15,2014-01-13 03:09:00,
2014-01-12 22:14:00,36.5,34.4,30.09,NW,314,0.0,2.0,92,0.00,,,0.00,Wunderground v.1.15,2014-01-13 03:14:00,
2014-01-12 22:19:00,36.3,34.2,30.09,NW,314,0.0,2.0,92,0.00,,,0.00,Wunderground v.1.15,2014-01-13 03:19:00,
2014-01-12 22:24:00,36.1,34.3,30.09,NW,314,0.0,1.0,93,0.00,,,0.00,Wunderground v.1.15,2014-01-13 03:24:00,
2014-01-12 22:29:00,36.0,34.2,30.09,NW,314,0.0,1.0,93,0.00,,,0.00,Wunderground v.1.15,2014-01-13 03:29:00,
2014-01-12 22:34:00,35.9,34.1,30.09,NW,314,1.0,2.0,93,0.00,,,0.00,Wunderground v.1.15,2014-01-13 03:34:00,
2014-01-12 22:39:00,35.9,34.1,30.10,NW,314,0.0,2.0,93,0.00,,,0.00,Wunderground v.1.15,2014-01-13 03:39:00,
2014-01-12 22:44:00,35.8,34.2,30.10,NW,314,0.0,1.0,94,0.00,,,0.00,Wunderground v.1.15,2014-01-13 03:44:00,
2014-01-12 22:49:00,35.9,34.3,30.10,NW,314,0.0,1.0,94,0.00,,,0.00,Wunderground v.1.15,2014-01-13 03:49:00,
2014-01-12 22:54:00,36.0,34.4,30.10,NW,314,0.0,1.0,94,0.00,,,0.00,Wunderground v.1.15,2014-01-13 03:54:00,
2014-01-12 22:59:00,36.6,35.3,30.10,NW,314,0.0,3.0,95,0.00,,,0.00,Wunderground v.1.15,2014-01-13 03:59:00,
2014-01-12 23:04:00,36.9,35.6,30.10,NW,314,1.0,2.0,95,0.00,,,0.00,Wunderground v.1.15,2014-01-13 04:04:00,
2014-01-12 23:09:00,37.0,35.7,30.10,NW,314,1.0,3.0,95,0.00,,,0.00,Wunderground v.1.15,2014-01-13 04:09:00,
2014-01-12 23:14:00,37.2,36.2,30.11,NW,314,2.0,3.0,96,0.00,,,0.00,Wunderground v.1.15,2014-01-13 04:14:00,
2014-01-12 23:19:00,37.4,36.4,30.10,NW,314,0.0,3.0,96,0.00,,,0.00,Wunderground v.1.15,2014-01-13 04:19:00,
2014-01-12 23:24:00,37.6,36.6,30.10,NW,314,1.0,3.0,96,0.00,,,0.00,Wunderground v.1.15,2014-01-13 04:24:00,
2014-01-12 23:29:00,37.8,36.8,30.11,NW,314,1.0,3.0,96,0.00,,,0.00,Wunderground v.1.15,2014-01-13 04:29:00,
2014-01-12 23:34:00,37.9,36.6,30.10,NW,314,0.0,1.0,95,0.00,,,0.00,Wunderground v.1.15,2014-01-13 04:34:00,
2014-01-12 23:40:00,38.0,36.7,30.10,NW,314,1.0,1.0,95,0.00,,,0.00,Wunderground v.1.15,2014-01-13 04:40:00,
2014-01-12 23:45:00,38.1,36.8,30.10,NW,314,1.0,3.0,95,0.00,,,0.00,Wunderground v.1.15,2014-01-13 04:45:00,
2014-01-12 23:50:00,38.2,36.6,30.10,NW,314,1.0,1.0,94,0.00,,,0.00,Wunderground v.1.15,2014-01-13 04:50:00,
2014-01-12 23:55:00,37.9,36.3,30.10,NW,314,3.0,3.0,94,0.00,,,0.00,Wunderground v.1.15,2014-01-13 04:55:00,